Houghton, MI

7:16 AM EST on December 17, 2017 (GMT -0500)
Houghton County Memorial

Weather History for KCMX - May, 2014

Change the Weather History Date:

Wednesday, May 7, 2014

  Actual Average Record
Temperature  
Mean Temperature 42 °F -  
Max Temperature 48 °F 57 °F 86 °F (2015)
Min Temperature 37 °F 37 °F 22 °F (1966)
Degree Days  
Heating Degree Days 22    
Moisture  
Dew Point 30 °F    
Average Humidity 63    
Maximum Humidity 77    
Minimum Humidity 50    
Precipitation  
Precipitation 0.04 in - - ()
Sea Level Pressure  
Sea Level Pressure 30.00 in    
Wind  
Wind Speed 12 mph (East)    
Max Wind Speed 17 mph    
Max Gust Speed 26 mph    
Visibility 10 miles    
Events Rain , Thunderstorm    
Averages and records for this station are not official NWS values.
T = Trace of Precipitation, MM = Missing Value Source: NWS Daily Summary

Daily Weather History Graph

Daily Weather History Graph

Search for Another Location

Airport or City:

Trip Planner

Search our weather history database for the weather conditions in past years. The results will help you decide how hot, cold, wet, or windy it might be!

Date:

Astronomy

May. 07, 2014 Rise Set
Actual Time 6:28 AM EDT 9:13 PM EDT
Civil Twilight 5:53 AM EDT 9:48 PM EDT
Nautical Twilight 5:09 AM EDT 10:32 PM EDT
Astronomical Twilight 4:17 AM EDT 11:25 PM EDT
Moon 1:50 PM EDT (5/7) 2:56 AM EDT (5/7)
Length of Visible Light 15h 54m
Length of Day
14h 44m
First Quarter, 55% of the Moon is Illuminated
May 7
First Quarter
May 14
Full
May 21
Last Quarter
May 28
New
Jun 5
First Quarter

Hourly Weather History & Observations

Time (EDT) Temp. Windchill Dew Point Humidity Pressure Visibility Wind Dir Wind Speed Gust Speed Precip Events Conditions
2:53 AM 37.9 °F 31.5 °F 27.0 °F 65% 30.07 in 10.0 mi ENE 9.2 mph - N/A   Overcast
3:53 AM 39.0 °F 32.3 °F 27.0 °F 62% 30.06 in 10.0 mi East 10.4 mph - N/A   Overcast
4:53 AM 39.2 °F 32.0 °F 26.6 °F 61% 30.03 in 10.0 mi East 11.5 mph - N/A   Overcast
5:53 AM 37.9 °F 29.6 °F 27.0 °F 65% 30.05 in 10.0 mi East 13.8 mph - N/A   Clear
6:53 AM 37.0 °F 28.5 °F 27.0 °F 67% 30.07 in 10.0 mi East 13.8 mph - N/A   Partly Cloudy
7:53 AM 37.4 °F 28.9 °F 28.4 °F 70% 30.04 in 10.0 mi East 13.8 mph - N/A   Mostly Cloudy
8:53 AM 39.0 °F 32.3 °F 28.9 °F 67% 30.07 in 10.0 mi East 10.4 mph - 0.00 in Rain Light Rain
9:53 AM 39.9 °F 31.8 °F 28.9 °F 65% 30.06 in 10.0 mi ESE 15.0 mph - 0.00 in   Mostly Cloudy
10:53 AM 41.0 °F 33.9 °F 28.9 °F 62% 30.05 in 10.0 mi East 12.7 mph - N/A   Mostly Cloudy
11:53 AM 42.1 °F 34.2 °F 28.9 °F 60% 30.04 in 10.0 mi East 16.1 mph - N/A   Overcast
12:53 PM 43.0 °F 37.2 °F 28.9 °F 58% 30.04 in 10.0 mi East 10.4 mph - N/A   Overcast
1:53 PM 46.0 °F 40.6 °F 30.0 °F 54% 30.02 in 10.0 mi East 11.5 mph - N/A   Mostly Cloudy
2:53 PM 46.0 °F 39.6 °F 30.0 °F 54% 30.01 in 10.0 mi East 15.0 mph - N/A   Overcast
3:53 PM 46.9 °F - 30.0 °F 52% 29.99 in 10.0 mi East 15.0 mph 21.9 mph N/A   Clear
4:53 PM 48.0 °F - 30.0 °F 50% 29.99 in 10.0 mi East 15.0 mph 21.9 mph N/A   Scattered Clouds
5:53 PM 46.0 °F 39.6 °F 32.0 °F 58% 29.98 in 10.0 mi East 15.0 mph 23.0 mph N/A   Mostly Cloudy
6:53 PM 46.9 °F - 32.0 °F 56% 29.96 in 10.0 mi East 17.3 mph 26.5 mph N/A   Overcast
7:53 PM 44.1 °F 38.6 °F 30.9 °F 60% 29.97 in 10.0 mi East 10.4 mph - N/A   Clear
8:53 PM 42.1 °F 35.7 °F 30.9 °F 65% 29.96 in 10.0 mi East 11.5 mph - N/A   Clear
9:53 PM 41.0 °F 33.9 °F 30.9 °F 67% 29.95 in 10.0 mi East 12.7 mph - N/A   Scattered Clouds
10:53 PM 39.9 °F 31.4 °F 30.9 °F 70% 29.93 in 10.0 mi East 16.1 mph - N/A   Overcast
11:09 PM 39.2 °F 31.2 °F 30.2 °F 70% 29.91 in 10.0 mi East 13.8 mph 21.9 mph N/A Thunderstorm Overcast
11:24 PM 39.2 °F 30.8 °F 30.2 °F 70% 29.91 in 10.0 mi East 15.0 mph - N/A   Overcast
11:31 PM 41.0 °F 32.8 °F 30.2 °F 65% 29.92 in 10.0 mi East 16.1 mph - N/A Thunderstorm Overcast
11:53 PM 39.9 °F 31.8 °F 33.1 °F 77% 29.94 in 7.0 mi East 15.0 mph - 0.04 in Rain , Thunderstorm Light Thunderstorms and Rain